Simultaneous Nadir Overpasses (SNOs) Predictions

Prediction of SNOs between METOP-A and TERRA Satellite Orbit:

Table of predicted SNOs for the next 14.0 days since TLE Epoch: 4/23/2016
Index Date (METOP-A) Time (METOP-A) Lat,Lon (METOP-A) SZA (METOP-A ) Date (TERRA) Time (TERRA) Lat,Lon (TERRA) SZA (TERRA ) Distance(km) Time Diff (sec)
1 04/23/2016 22:13:17 81.18,-112.32 70.52 04/23/2016 22:14:31 80.94,-111.82 70.44 27.33 74
2 04/23/2016 23:03:41 -81.31, 61.62 108.67 04/23/2016 23:03:42 -81.31, 61.65 108.67 0.50 1
3 04/23/2016 23:54:20 81.32,-130.43 71.40 04/23/2016 23:53:08 81.32,-130.62 71.34 3.19 72
4 04/26/2016 17:47:23 81.31, -39.58 70.42 04/26/2016 17:48:33 81.31, -39.56 70.46 0.47 70
5 04/26/2016 18:38:03 -81.32, 128.17 109.54 04/26/2016 18:38:00 -81.31, 128.07 109.56 1.60 3
6 04/29/2016 13:21:46 81.31, 26.94 69.57 04/29/2016 13:22:52 81.31, 26.78 69.58 2.77 66
7 04/29/2016 14:12:27 -81.31,-165.70 110.44 04/29/2016 14:12:19 -81.31,-165.57 110.43 2.20 8
8 05/02/2016 08:56:10 81.31, 93.05 68.70 05/02/2016 08:57:11 81.30, 93.05 68.73 0.79 61
9 05/02/2016 09:46:49 -81.32, -98.82 111.21 05/02/2016 09:46:37 -81.32, -98.91 111.23 1.66 12
10 05/05/2016 04:30:32 81.31, 159.52 67.91 05/05/2016 04:31:28 81.31, 159.63 67.95 1.96 56




NCC Satellite Simultaneous Nadir Overpasses (SNOs) Prediction Service
